Location: Kerb�bon
(47.7970°N, 3.3487°W)
Time: 11:58:44
(UTC+00:00)

Cosmos 1328 Rocket - Pass Details

Date: 12 May 2021
Orbit: 600 x 628 km, 82.5° (Epoch: 18 June)

Event Time Altitude Azimuth Distance (km) Brightness Sun altitude
Exits shadow 20:59:26 - 187° (S) 2,698 6.5 -11.3°
Reaches altitude 10° 21:01:10 10° 187° (S) 1,995 5.8 -11.6°
Maximum altitude 21:05:36 88° 95° (E) 631 3.5 -12.1°
Drops below altitude 10° 21:10:02 10° 10° (N) 1,999 6.7 -12.6°
Sets 21:12:16 0° 10° (N) 2,905 7.6 -12.8°
